This demonstration page uses our WeatherBlox Daily Observations layout. Learn more.

Left ArrowRight Arrow

39.92423, -83.80882

Hourly Observations for February 8, 2022

Temp ( °F °C ) Dew Point ( °F °C ) Humidity (%) Winds ( mph kmh ) Pressure ( in mb ) Visibility ( mi km ) Precip ( " mm )
12:56 am 00:56 Cloudy 18 -7.8 14 -10 84 84 WNW 10 17 30.19 1022 10 16 0.00 0.00
1:56 am 01:56 Cloudy 16 -8.9 13 -10.6 88 88 WNW 9 15 30.19 1022 9 14 0.00 0.00
2:56 am 02:56 Mostly Cloudy 13 -10.6 11 -11.7 92 92 WNW 6 9 30.19 1022 9 14 0.00 0.00
3:09 am 03:09 Partly Cloudy 12 -11 10 -12 92 92 WNW 3 6 30.24 1024 10 16 0.00 0.00
3:56 am 03:56 Clear 11 -11.7 10 -12.2 96 96 WSW 5 7 30.19 1022 10 16 0.00 0.00
4:56 am 04:56 Clear 11 -11.7 11 -11.7 100 100 WSW 3 6 30.19 1022 9 14 0.00 0.00
5:56 am 05:56 Clear 9 -12.8 9 -12.8 100 100 WSW 5 7 30.20 1023 7 11 0.00 0.00
6:56 am 06:56 Clear 9 -12.8 9 -12.8 100 100 SSW 5 7 30.21 1023 7 11 0.00 0.00
7:56 am 07:56 Sunny with Mist and Fog 10 -12.2 9 -12.8 95 95 SSW 3 6 30.22 1023 6 10 0.00 0.00
8:56 am 08:56 Mostly Cloudy with Mist and Fog 15 -9.4 15 -9.4 100 100 S 5 7 30.22 1023 6 10 0.00 0.00
9:56 am 09:56 Cloudy 17 -8.3 13 -10.6 84 84 S 8 13 30.21 1023 10 16 0.00 0.00
10:56 am 10:56 Cloudy 20 -6.7 15 -9.4 81 81 S 8 13 30.19 1022 10 16 0.00 0.00
11:56 am 11:56 Cloudy 23 -5 17 -8.3 78 78 S 12 19 30.18 1022 10 16 0.00 0.00
12:56 pm 12:56 Mostly Sunny 27 -2.8 18 -7.8 69 69 SSE 9 15 30.14 1021 10 16 0.00 0.00
1:56 pm 13:56 Sunny 30 -1.1 20 -6.7 66 66 SSE 9 15 30.11 1020 10 16 0.00 0.00
2:56 pm 14:56 Sunny 31 -0.6 22 -5.6 69 69 SSE 9 15 30.09 1019 10 16 0.00 0.00
3:56 pm 15:56 Sunny 33 0.6 22 -5.6 64 64 SSE 10 17 30.06 1018 10 16 0.00 0.00
4:56 pm 16:56 Sunny 34 1.1 23 -5 64 64 S 7 11 30.05 1018 10 16 0.00 0.00
5:56 pm 17:56 Sunny 32 0 24 -4.4 73 73 SSE 8 13 30.05 1018 10 16 0.00 0.00
6:56 pm 18:56 Clear 31 -0.6 25 -3.9 79 79 SSE 8 13 30.04 1017 10 16 0.00 0.00
7:56 pm 19:56 Clear 32 0 26 -3.3 79 79 S 7 11 30.04 1017 10 16 0.00 0.00
8:56 pm 20:56 Clear 34 1.1 27 -2.8 76 76 S 8 13 30.01 1016 10 16 0.00 0.00
9:56 pm 21:56 Clear 37 2.8 28 -2.2 70 70 SSW 8 13 30.00 1016 10 16 0.00 0.00
10:56 pm 22:56 Clear 40 4.4 29 -1.7 65 65 SSW 14 22 29.97 1015 10 16 0.00 0.00
11:56 pm 23:56 Clear 39 3.9 28 -2.2 65 65 SSW 10 17 29.96 1014 10 16 0.00 0.00

Powered by AerisWeather